Time,TemperatureF,DewpointF,PressureIn,WindDirection,WindDirectionDegrees,WindSpeedMPH,WindSpeedGustMPH,Humidity,HourlyPrecipIn,Conditions,Clouds,dailyrainin,SoftwareType,DateUTC
2013-04-14 00:53:00,81.0,-99.9,29.98,ESE,110,6.0,6.0,-999,-99.99,,,-99.99,,2013-04-14 04:53:00,
2013-04-14 01:53:00,82.0,-99.9,29.97,ESE,120,6.0,7.0,-999,-99.99,,,-99.99,,2013-04-14 05:53:00,
2013-04-14 02:53:00,81.0,-99.9,29.96,SSE,150,11.0,14.0,-999,-99.99,,,-99.99,,2013-04-14 06:53:00,
2013-04-14 03:53:00,80.0,-99.9,29.95,South,170,13.0,14.0,-999,-99.99,,,-99.99,,2013-04-14 07:53:00,
2013-04-14 04:53:00,80.0,-99.9,29.93,SSE,160,10.0,11.0,-999,-99.99,,,-99.99,,2013-04-14 08:53:00,
2013-04-14 04:54:00,80.0,-99.9,29.94,South,180,13.0,15.0,-999,-99.99,,,-99.99,,2013-04-14 08:54:00,
2013-04-14 06:53:00,80.0,-99.9,29.93,South,170,13.0,14.0,-999,-99.99,,,-99.99,,2013-04-14 10:53:00,
2013-04-14 07:53:00,80.0,-99.9,29.94,SSE,160,15.0,17.0,-999,-99.99,,,-99.99,,2013-04-14 11:53:00,
2013-04-14 08:52:00,80.0,-99.9,29.95,SSE,150,16.0,18.0,-999,-99.99,,,-99.99,,2013-04-14 12:52:00,
2013-04-14 09:53:00,80.0,-99.9,29.96,SSE,150,17.0,18.0,-999,-99.99,,,-99.99,,2013-04-14 13:53:00,
2013-04-14 10:53:00,81.0,-99.9,29.96,SSE,150,18.0,21.0,-999,-99.99,,,-99.99,,2013-04-14 14:53:00,
2013-04-14 11:53:00,81.0,-99.9,29.97,South,170,16.0,18.0,-999,-99.99,,,-99.99,,2013-04-14 15:53:00,
2013-04-14 12:53:00,81.0,-99.9,29.96,SSE,150,16.0,20.0,-999,-99.99,,,-99.99,,2013-04-14 16:53:00,
2013-04-14 13:53:00,81.0,-99.9,29.96,SSE,160,16.0,20.0,-999,-99.99,,,-99.99,,2013-04-14 17:53:00,
2013-04-14 13:54:00,81.0,-99.9,29.95,SSE,160,13.0,15.0,-999,-99.99,,,-99.99,,2013-04-14 17:54:00,
2013-04-14 15:53:00,81.0,-99.9,29.92,SE,140,15.0,17.0,-999,-99.99,,,-99.99,,2013-04-14 19:53:00,
2013-04-14 16:53:00,81.0,-99.9,29.91,SE,140,15.0,18.0,-999,-99.99,,,-99.99,,2013-04-14 20:53:00,
2013-04-14 16:54:00,81.0,-99.9,29.90,SE,140,14.0,15.0,-999,-99.99,,,-99.99,,2013-04-14 20:54:00,
2013-04-14 18:53:00,81.0,-99.9,29.90,SE,140,15.0,20.0,-999,-99.99,,,-99.99,,2013-04-14 22:53:00,
2013-04-14 19:53:00,81.0,-99.9,29.91,SE,140,15.0,18.0,-999,-99.99,,,-99.99,,2013-04-14 23:53:00,
2013-04-14 20:53:00,81.0,-99.9,29.91,SE,140,16.0,18.0,-999,-99.99,,,-99.99,,2013-04-15 00:53:00,
2013-04-14 21:53:00,81.0,-99.9,29.92,SE,130,17.0,18.0,-999,-99.99,,,-99.99,,2013-04-15 01:53:00,
2013-04-14 22:53:00,81.0,-99.9,29.95,SE,140,16.0,18.0,-999,-99.99,,,-99.99,,2013-04-15 02:53:00,
2013-04-14 22:54:00,81.0,-99.9,29.97,SSE,150,17.0,20.0,-999,-99.99,,,-99.99,,2013-04-15 02:54:00,